sat.trackr.live / text

‹ back to catalog

NUSHSAT1

NORAD 63211 · 2025-052B

PAYLOAD ACTIVE UNKNOWN

§ Identity

Operator
Country
SING
Launch date
2025-03-15
Launch site
AFWTR
Launch vehicle
Mass (kg)
RCS (m²)

External: N2YO · Heavens-Above · Gunter

§ Orbital elements

Epoch: 2026-09-22T15:58:58.989792Z

Period
93.53 min
Inclination
97.3834°
Eccentricity
0.0005058
Mean motion
15.39540929 rev/d
Perigee alt
444.0 km
Apogee alt
450.9 km
Semi-major
6,825.6 km
B*
4.2265e-4
RAAN
163.6316°
Arg perigee
95.2830°
Mean anomaly
264.8993°
Rev number
8,512

§ Raw data

NUSHSAT11 63211U 25052B   26265.66596053  .00016549  00000+0  42265-3 0  99942 63211  97.3834 163.6316 0005058  95.2830 264.8993 15.39540929 85124

JSON: /api/v1/satellites/63211 · /tle

For live sub-satellite position, see the globe view (requires WebGL).

§ Visibility from observer

Set your observer location to see the next 7 days of passes ≥ 10°. The values pass through the URL so the page stays shareable.

No JS? Fill the form by hand. The geolocation button needs JavaScript.

§ Radio — SatNOGS DB

ModeDescriptionDownlinkUplink
FSK AX.100 Mode 5 AX.100 2400 baud 436.200 MHz
FSK AX.100 Mode 5 Mode U - Transmitter 436.200 MHz

2 transmitters · refreshed weekly from db.satnogs.org